Lid_Strength_Index
6 9 11 10 12 14 16 14 14 14 13 11 9 10 11 9 11 13 4 1 0 1 -0 -0 -1 -1 -1 -2 -1 -1 0 0 1 1 1 1 1 1 1 1 1 0 -0 -0 -0 -0 -0 -0 -0
8 9 11 13 15 18 17 15 14 13 11 7 9 9 9 11 7 5 4 1 0 0 0 -0 -1 -1 -2 -1 -1 0 0 1 1 1 1 1 1 2 1 1 1 0 0 -0 -0 -0 -0 -0 -0
9 11 12 14 17 18 16 14 13 11 9 11 9 8 9 9 7 4 3 0 1 1 0 0 -1 -2 -2 -1 -0 0 0 1 1 1 2 2 2 2 1 1 1 1 1 0 0 0 0 -0 -0
11 12 13 16 17 15 15 15 12 12 12 11 9 10 7 5 4 3 1 1 2 2 1 -1 -2 -2 -1 -1 -0 0 0 1 2 2 3 2 2 2 2 2 2 1 1 1 0 0 0 -0 -0
13 14 16 18 18 15 15 14 12 13 12 12 10 10 9 5 2 1 1 1 2 3 1 0 -2 -2 -1 -1 0 1 1 1 2 3 3 3 3 3 2 2 2 1 1 1 1 -0 0 0 0
14 15 17 18 18 16 15 14 13 13 13 12 9 8 8 4 3 2 2 3 2 2 1 0 -0 -1 -1 -0 1 1 1 2 3 3 3 3 4 3 2 2 2 2 1 1 1 1 1 1 1
14 16 17 18 19 17 15 14 15 14 13 12 8 9 9 6 3 3 4 3 3 2 1 1 1 0 0 0 1 1 2 3 4 4 4 4 4 4 3 3 2 2 2 1 1 1 1 1 1
14 15 18 18 18 17 15 14 13 14 12 10 7 10 9 5 3 4 4 4 3 3 2 2 2 2 4 3 2 2 3 4 4 4 4 4 5 4 4 4 3 2 1 1 1 0 0 0 1
14 16 18 17 17 16 15 15 14 14 12 9 7 8 6 3 4 5 5 5 5 4 3 3 3 4 5 5 5 4 4 4 5 5 5 6 8 7 7 4 3 2 2 1 1 1 1 1 2
15 17 16 15 16 16 16 16 15 13 14 11 9 7 5 4 4 4 5 5 5 5 4 4 4 5 6 5 7 8 7 9 9 9 9 8 7 7 6 6 4 4 3 2 2 1 2 3 5
16 17 16 14 14 14 15 15 15 16 15 13 10 7 5 4 4 4 4 4 4 4 4 4 5 6 7 7 9 9 9 10 10 10 9 8 8 8 8 8 8 7 6 6 5 5 5 5 5
16 15 15 13 13 14 15 15 15 15 14 13 12 5 5 5 4 4 5 5 5 5 4 5 5 6 7 8 10 10 10 10 10 10 9 9 8 8 8 8 8 8 7 7 6 6 6 4 4
15 15 14 13 14 14 14 14 15 15 13 13 9 5 5 5 4 4 4 4 4 4 4 5 5 6 7 9 10 10 9 10 11 10 9 9 9 8 8 8 8 8 7 7 7 6 6 4 4
14 14 14 14 14 14 15 15 15 14 14 14 14 7 5 5 4 5 5 4 4 4 4 4 5 5 7 9 10 10 9 10 10 11 10 9 9 8 8 8 8 7 7 7 7 6 6 5 4
13 16 16 15 15 14 14 16 16 12 14 14 14 14 8 5 5 4 4 4 4 4 3 4 5 6 7 8 9 9 10 10 10 10 9 9 8 8 8 8 8 7 7 6 6 6 5 3 4
15 16 19 16 15 15 14 18 15 15 15 14 15 15 15 11 5 4 4 3 3 3 4 4 4 6 8 9 9 9 10 10 10 10 9 8 8 8 7 8 8 7 7 6 6 6 6 4 4
18 20 19 17 15 16 17 18 15 16 16 16 16 16 15 15 13 6 4 4 4 3 4 4 5 7 7 8 8 9 9 9 10 9 9 8 8 7 7 7 8 7 7 7 6 6 6 5 4
20 19 19 19 17 17 18 18 16 15 16 15 16 16 15 15 14 13 6 4 3 3 3 4 5 7 7 8 9 9 10 9 9 9 9 9 8 7 7 7 7 7 7 7 6 7 6 6 5
18 19 19 18 16 17 18 17 15 15 16 15 15 15 15 14 13 13 10 5 4 3 4 5 6 8 8 9 10 10 10 10 10 9 9 9 8 7 7 7 7 7 7 7 6 6 6 6 6
18 19 19 18 16 17 18 18 16 16 16 15 14 14 14 14 14 14 13 6 4 4 4 5 6 8 8 8 10 10 10 10 10 10 9 9 8 7 6 7 7 7 7 7 7 6 7 6 7
17 18 19 18 18 17 18 19 17 15 16 15 15 13 13 13 13 14 14 8 4 4 4 5 6 7 8 8 9 10 10 10 10 10 10 9 7 7 6 6 7 7 7 7 7 6 7 7 7
17 16 17 17 18 21 19 22 18 16 16 16 15 15 13 13 14 14 14 10 5 3 4 5 6 7 8 8 9 9 10 11 10 10 9 8 7 7 6 6 7 7 6 6 7 6 6 7 7
16 15 16 17 18 19 20 21 19 18 17 15 13 13 14 14 15 14 14 9 5 4 4 5 6 7 8 8 8 9 10 10 10 9 9 9 8 7 7 6 7 7 6 6 6 6 6 6 7
13 14 15 17 18 23 19 20 20 17 15 14 13 14 14 15 15 15 14 8 5 4 4 6 6 7 7 7 8 8 9 10 10 10 10 9 9 8 7 6 6 6 7 6 6 6 6 6 6
14 16 24 23 26 23 21 21 17 16 15 14 13 14 15 15 16 16 11 7 5 5 5 6 6 7 7 7 8 8 9 9 9 10 10 10 9 9 7 7 6 6 6 6 5 5 6 7 7
16 14 20 24 25 22 20 22 19 16 13 14 14 14 14 14 15 16 11 7 5 5 6 6 6 7 7 8 8 8 9 9 9 10 9 9 9 8 7 7 6 6 6 6 5 6 6 7 7
15 16 14 19 24 21 20 19 16 15 15 15 15 15 15 15 15 15 11 8 6 5 5 6 6 7 7 7 8 9 9 9 9 10 9 9 8 8 7 7 6 6 6 5 5 6 6 7 8
13 12 16 18 24 24 21 21 18 16 14 15 15 15 15 16 16 16 12 9 7 5 5 6 6 7 7 8 8 8 9 9 9 9 9 9 8 8 7 7 6 6 5 5 5 6 6 7 7
15 14 15 15 17 21 24 20 16 13 12 13 14 14 15 15 15 15 14 11 9 6 6 7 7 8 8 8 8 9 9 9 9 9 8 8 8 8 7 7 7 6 6 6 6 6 6 7 7
13 13 14 15 19 21 20 20 15 14 13 13 13 13 14 14 14 14 13 12 9 9 9 9 9 9 8 8 8 9 9 9 9 9 8 8 8 8 7 7 6 6 6 6 6 6 5 7 8